Orbital Elements at Epoch 2459200.5 (2020-Dec-17.0) TDB
Reference: JPL 18 (heliocentric ecliptic J2000)
Element | Value | Uncertainty (1-sigma) | Units |
e | .29468983579348 | 5.591e-08 | |
a | 2.306510520392416 | 6.1292e-09 | au |
q | 1.626805313882041 | 1.2928e-07 | au |
i | 8.06245982403299 | 5.5641e-06 | deg |
node | 174.9641414497987 | 2.6407e-05 | deg |
peri | 224.6956174401914 | 2.8034e-05 | deg |
M | 317.225524622449 | 7.3195e-06 | deg |
tp | 2459352.524567852453 (2021-May-18.02456785) | 2.632e-05 | TDB |
period | 1279.474358102965 3.50 | 5.1e-06 1.396e-08 | d yr |
n | .2813655449365632 | 1.1215e-09 | deg/d |
Q | 2.986215726902791 | 7.9354e-09 | au |
|
| | Orbit Determination Parameters
Additional Information
|